• In Germany
  • List of Countries
  • For 7 days
  • Water Temperature
  • Satellite Maps
  • Weather Map
  • Weather Widgets
  • user-avatar
    Login

    Hourly Weather Malyy Kunaley

    Today, 16 July, Monday

    Time Temperature Precipitation Wind Pressure Humidity
    00:00 +20°C° 0.1 mm 1 mps 697 mmHg 80%
    01:00 +19°C° 0 mm 1 mps 697 mmHg 81%
    02:00 +19°C° 0 mm 1 mps 697 mmHg 83%
    03:00 +18°C° 0 mm 1 mps 697 mmHg 85%
    04:00 +18°C° 0 mm 1 mps 697 mmHg 86%
    05:00 +20°C° 0 mm 1 mps 697 mmHg 81%
    06:00 +21°C° 0 mm 1 mps 697 mmHg 76%
    07:00 +22°C° 0 mm 1 mps 697 mmHg 75%
    08:00 +24°C° 0.2 mm 1 mps 697 mmHg 69%
    09:00 +25°C° 0.2 mm 1 mps 697 mmHg 63%
    10:00 +27°C° 0.2 mm 1 mps 697 mmHg 57%
    11:00 +27°C° 0.7 mm 1 mps 697 mmHg 58%
    12:00 +27°C° 0.7 mm 1 mps 697 mmHg 59%
    13:00 +28°C° 0 mm 1 mps 697 mmHg 60%
    14:00 +28°C° 1.1 mm 1 mps 697 mmHg 61%
    15:00 +28°C° 1.1 mm 1 mps 697 mmHg 61%
    16:00 +27°C° 1.1 mm 1 mps 697 mmHg 62%
    17:00 +26°C° 0.3 mm 1 mps 697 mmHg 66%
    18:00 +23°C° 0.3 mm 0 mps 696 mmHg 70%
    19:00 +22°C° 0.3 mm 0 mps 696 mmHg 75%
    20:00 +21°C° 0.2 mm 0 mps 696 mmHg 78%
    21:00 +19°C° 0.2 mm 0 mps 697 mmHg 82%
    22:00 +18°C° 0.2 mm 0 mps 697 mmHg 85%
    23:00 +19°C° 0.1 mm 1 mps 697 mmHg 86%

    Tomorrow, 17 July, Tuesday

    Time Temperature Precipitation Wind Pressure Humidity
    00:00 +19°C° 0.1 mm 1 mps 697 mmHg 87%
    01:00 +19°C° 0.1 mm 1 mps 697 mmHg 88%
    02:00 +18°C° 0 mm 1 mps 697 mmHg 89%
    03:00 +18°C° 0 mm 1 mps 697 mmHg 91%
    04:00 +16°C° 0 mm 1 mps 697 mmHg 92%
    05:00 +19°C° 0 mm 1 mps 697 mmHg 88%
    06:00 +21°C° 0 mm 1 mps 697 mmHg 83%
    07:00 +22°C° 0 mm 1 mps 698 mmHg 79%
    08:00 +24°C° 0 mm 2 mps 698 mmHg 71%
    09:00 +26°C° 0 mm 2 mps 698 mmHg 62%
    10:00 +28°C° 0 mm 3 mps 698 mmHg 54%
    11:00 +29°C° 0.2 mm 3 mps 697 mmHg 51%
    12:00 +30°C° 0.2 mm 3 mps 697 mmHg 49%
    13:00 +31°C° 0.2 mm 3 mps 697 mmHg 47%
    14:00 +31°C° 0.2 mm 3 mps 697 mmHg 47%
    15:00 +31°C° 0.2 mm 3 mps 697 mmHg 46%
    16:00 +31°C° 0.2 mm 3 mps 697 mmHg 46%
    17:00 +29°C° 0.1 mm 3 mps 697 mmHg 53%
    18:00 +27°C° 0.1 mm 2 mps 697 mmHg 60%
    19:00 +26°C° 0.1 mm 2 mps 697 mmHg 67%
    20:00 +24°C° 0 mm 2 mps 697 mmHg 72%
    21:00 +22°C° 0 mm 1 mps 697 mmHg 77%
    22:00 +21°C° 0 mm 1 mps 697 mmHg 82%
    23:00 +20°C° 0.1 mm 1 mps 697 mmHg 84%

    Day after tomorrow, 18 July, Wednesday

    Time Temperature Precipitation Wind Pressure Humidity
    00:00 +19°C° 0.1 mm 1 mps 697 mmHg 86%
    01:00 +19°C° 0.1 mm 1 mps 697 mmHg 88%
    02:00 +19°C° 0 mm 1 mps 697 mmHg 90%
    03:00 +18°C° 0 mm 1 mps 697 mmHg 91%
    04:00 +18°C° 0 mm 1 mps 697 mmHg 92%
    05:00 +19°C° 0 mm 1 mps 697 mmHg 86%
    06:00 +21°C° 0 mm 1 mps 697 mmHg 80%
    07:00 +23°C° 0 mm 1 mps 697 mmHg 74%
    08:00 +25°C° 0.1 mm 1 mps 697 mmHg 68%
    09:00 +27°C° 0.1 mm 2 mps 698 mmHg 61%
    10:00 +29°C° 0.1 mm 2 mps 698 mmHg 54%
    11:00 +30°C° 0.3 mm 2 mps 698 mmHg 52%
    12:00 +31°C° 0.3 mm 2 mps 697 mmHg 49%
    13:00 +31°C° 0.3 mm 2 mps 697 mmHg 46%
    14:00 +31°C° 0.3 mm 2 mps 697 mmHg 48%
    15:00 +30°C° 0.3 mm 2 mps 697 mmHg 51%
    16:00 +30°C° 0.3 mm 1 mps 696 mmHg 53%
    17:00 +28°C° 0.1 mm 1 mps 696 mmHg 59%
    18:00 +27°C° 0.1 mm 1 mps 696 mmHg 65%
    19:00 +26°C° 0.1 mm 1 mps 696 mmHg 71%
    20:00 +24°C° 0.4 mm 1 mps 697 mmHg 76%
    21:00 +23°C° 0.4 mm 1 mps 697 mmHg 81%
    22:00 +21°C° 0.4 mm 1 mps 697 mmHg 86%
    23:00 +21°C° 0.4 mm 1 mps 697 mmHg 87%

    19 July, Thursday

    Time Temperature Precipitation Wind Pressure Humidity
    00:00 +21°C° 0.4 mm 1 mps 697 mmHg 89%
    01:00 +18°C° 0.4 mm 0 mps 697 mmHg 91%
    02:00 +18°C° 0.3 mm 0 mps 697 mmHg 92%
    03:00 +18°C° 0.3 mm 0 mps 697 mmHg 93%
    04:00 +20°C° 0.3 mm 1 mps 697 mmHg 93%
    05:00 +19°C° 0 mm 0 mps 697 mmHg 90%
    06:00 +20°C° 0 mm 0 mps 698 mmHg 86%
    07:00 +22°C° 0 mm 0 mps 698 mmHg 82%
    08:00 +26°C° 0.2 mm 1 mps 698 mmHg 73%
    09:00 +28°C° 0.2 mm 1 mps 698 mmHg 65%
    10:00 +30°C° 0.2 mm 1 mps 698 mmHg 57%
    11:00 +32°C° 0 mm 1 mps 698 mmHg 51%
    12:00 +33°C° 0 mm 1 mps 698 mmHg 45%
    13:00 +35°C° 0 mm 1 mps 697 mmHg 38%
    14:00 +35°C° 0 mm 1 mps 697 mmHg 37%
    15:00 +34°C° 0 mm 1 mps 697 mmHg 36%
    16:00 +34°C° 0 mm 1 mps 696 mmHg 35%
    17:00 +32°C° 0 mm 2 mps 696 mmHg 43%
    18:00 +31°C° 0 mm 2 mps 696 mmHg 50%
    19:00 +29°C° 0 mm 2 mps 695 mmHg 58%
    20:00 +27°C° 0 mm 2 mps 695 mmHg 62%
    21:00 +26°C° 0 mm 2 mps 695 mmHg 67%
    22:00 +24°C° 0 mm 2 mps 694 mmHg 72%
    23:00 +24°C° 0.7 mm 2 mps 694 mmHg 77%

    20 July, Friday

    Time Temperature Precipitation Wind Pressure Humidity
    00:00 +23°C° 0.7 mm 2 mps 694 mmHg 81%
    01:00 +21°C° 0.7 mm 2 mps 693 mmHg 86%
    02:00 +22°C° 1 mm 1 mps 693 mmHg 89%
    03:00 +22°C° 1 mm 1 mps 693 mmHg 92%
    04:00 +21°C° 1 mm 1 mps 693 mmHg 94%
    05:00 +21°C° 0.2 mm 2 mps 693 mmHg 90%
    06:00 +24°C° 0.2 mm 2 mps 694 mmHg 86%
    07:00 +25°C° 0.2 mm 2 mps 694 mmHg 82%
    08:00 +26°C° 0 mm 3 mps 694 mmHg 75%
    09:00 +27°C° 0 mm 3 mps 694 mmHg 68%
    10:00 +28°C° 0 mm 4 mps 694 mmHg 60%
    11:00 +30°C° 0 mm 4 mps 694 mmHg 55%
    12:00 +32°C° 0 mm 4 mps 695 mmHg 49%
    13:00 +33°C° 0 mm 4 mps 695 mmHg 43%
    14:00 +33°C° 0 mm 4 mps 695 mmHg 44%
    15:00 +32°C° 0 mm 4 mps 695 mmHg 45%
    16:00 +31°C° 0 mm 3 mps 695 mmHg 46%
    17:00 +29°C° 0.6 mm 3 mps 695 mmHg 57%
    18:00 +26°C° 0.6 mm 3 mps 695 mmHg 69%
    19:00 +24°C° 0.6 mm 2 mps 695 mmHg 80%
    20:00 +21°C° 1.1 mm 2 mps 695 mmHg 84%
    21:00 +19°C° 1.1 mm 2 mps 694 mmHg 89%
    22:00 +19°C° 1.1 mm 1 mps 694 mmHg 93%
    23:00 +18°C° 1.3 mm 1 mps 694 mmHg 94%

    21 July, Saturday

    Time Temperature Precipitation Wind Pressure Humidity
    00:00 +18°C° 1.3 mm 1 mps 694 mmHg 94%
    01:00 +18°C° 1.3 mm 1 mps 694 mmHg 94%
    02:00 +16°C° 0.5 mm 1 mps 694 mmHg 95%
    03:00 +16°C° 0.5 mm 1 mps 694 mmHg 95%
    04:00 +15°C° 0.5 mm 1 mps 694 mmHg 95%
    05:00 +16°C° 0 mm 1 mps 694 mmHg 91%
    06:00 +18°C° 0 mm 1 mps 695 mmHg 87%
    07:00 +18°C° 0 mm 1 mps 695 mmHg 82%
    08:00 +19°C° 0 mm 2 mps 695 mmHg 74%
    09:00 +21°C° 0 mm 2 mps 696 mmHg 65%
    10:00 +22°C° 0 mm 3 mps 696 mmHg 56%
    11:00 +22°C° 0.1 mm 3 mps 696 mmHg 59%
    12:00 +22°C° 0.1 mm 4 mps 696 mmHg 62%
    13:00 +21°C° 0.1 mm 5 mps 696 mmHg 65%
    14:00 +21°C° 0.1 mm 5 mps 697 mmHg 64%
    15:00 +21°C° 0.1 mm 5 mps 697 mmHg 63%
    16:00 +21°C° 0.1 mm 5 mps 697 mmHg 62%
    17:00 +20°C° 0.1 mm 4 mps 698 mmHg 67%
    18:00 +19°C° 0.1 mm 4 mps 698 mmHg 72%
    19:00 +17°C° 0.1 mm 3 mps 699 mmHg 77%
    20:00 +17°C° 0 mm 3 mps 699 mmHg 80%
    21:00 +16°C° 0 mm 3 mps 700 mmHg 83%
    22:00 +15°C° 0 mm 2 mps 700 mmHg 86%
    23:00 +15°C° 0 mm 2 mps 700 mmHg 88%
    Show more